Date String (YYYY-MM-DD hh:mm:ss) UTC,Instrument flags,Ambient pressure (hPa),Sample flow (lpm),Bypass flow (lpm),Sample temperature (°C),Ambient temperature (°C),ASC tube jacket temperature (°C),LED temperature (°C),Box temperature (°C),Sample RH (%),Span deviation,Mass concentration (μg/m³),Mass concentration (μg/m³),Mass concentration (μg/m³)
DateTimeUTC,F1_M11,P_M11,Q1_M11,Q2_M11,T1_M11,T2_M11,T3_M11,T4_M11,T5_M11,U1_M11,ZSPAN_M11,X0_M11,X2_M11,X1_M11
2022-05-18 18:00:00,,0826.7,4.99,0.00,29.8,27.9,00.0,38.5,31.5,17.7,0000.0,0011.91,0004.31,0003.27
2022-05-18 18:01:00,,0826.7,5.01,0.00,29.7,27.4,00.0,38.5,31.3,17.5,0000.0,0011.71,0004.28,0003.25
2022-05-18 18:02:00,,0826.7,5.01,0.00,29.7,27.4,00.0,38.4,31.3,17.6,0000.0,0011.61,0004.26,0003.22
2022-05-18 18:03:00,,0826.7,4.99,0.00,29.6,27.4,00.0,38.4,31.3,17.3,0000.0,0011.72,0004.24,0003.20
2022-05-18 18:04:00,,0826.7,5.01,0.00,29.6,27.6,00.0,38.4,31.3,17.1,0000.0,0011.69,0004.20,0003.18
2022-05-18 18:05:00,,0826.7,5.02,0.00,29.6,27.8,00.0,38.4,31.3,17.1,0000.0,0012.84,0004.16,0003.17
2022-05-18 18:06:00,,0826.7,5.00,0.00,29.6,28.0,00.0,38.4,31.4,17.9,0000.0,0012.63,0004.13,0003.17
2022-05-18 18:07:00,,0826.7,4.99,0.00,29.6,28.1,00.0,38.4,31.4,17.8,0000.0,0012.44,0004.11,0003.16
2022-05-18 18:08:00,,0826.7,5.00,0.00,29.6,28.3,00.0,38.4,31.4,18.2,0000.0,0011.48,0004.01,0003.12
2022-05-18 18:09:00,,0826.6,4.99,0.00,29.6,28.4,00.0,38.4,31.5,17.4,0000.0,0011.59,0003.99,0003.08
2022-05-18 18:10:00,,0826.7,5.00,0.00,29.7,28.5,00.0,38.5,31.5,17.0,0000.0,0012.20,0003.99,0003.05
2022-05-18 18:11:00,,0826.7,5.01,0.00,29.7,28.6,00.0,38.5,31.6,17.1,0000.0,0012.11,0003.91,0002.99
2022-05-18 18:12:00,,0826.6,5.01,0.00,29.7,28.7,00.0,38.5,31.6,16.8,0000.0,0011.82,0003.88,0002.94
2022-05-18 18:13:00,,0826.6,4.99,0.00,29.7,28.8,00.0,38.5,31.7,16.9,0000.0,0012.17,0003.90,0002.93
2022-05-18 18:14:00,,0826.6,5.01,0.00,29.8,28.9,00.0,38.5,31.7,17.2,0000.0,0012.07,0003.88,0002.92
2022-05-18 18:15:00,,0826.5,5.01,0.00,29.8,28.9,00.0,38.5,31.7,16.8,0000.0,0012.13,0003.92,0002.89
2022-05-18 18:16:00,,0826.5,4.99,0.00,29.8,28.4,00.0,38.5,31.6,17.2,0000.0,0011.79,0003.98,0002.88
2022-05-18 18:17:00,,0826.5,5.01,0.00,29.7,27.5,00.0,38.4,31.3,17.1,0000.0,0011.87,0004.03,0002.87
2022-05-18 18:18:00,,0826.6,4.99,0.00,29.6,27.2,00.0,38.4,31.2,16.8,0000.0,0011.92,0004.03,0002.84
2022-05-18 18:19:00,,0826.5,4.99,0.00,29.6,27.3,00.0,38.4,31.2,17.4,0000.0,0011.84,0004.08,0002.82
2022-05-18 18:20:00,,0826.5,4.99,0.00,29.5,27.4,00.0,38.4,31.2,17.6,0000.0,0011.29,0004.07,0002.80
2022-05-18 18:21:00,,0826.5,5.01,0.00,29.5,27.6,00.0,38.4,31.2,17.6,0000.0,0010.33,0004.06,0002.78
2022-05-18 18:22:00,,0826.5,5.01,0.00,29.5,27.7,00.0,38.4,31.3,17.4,0000.0,0010.27,0004.05,0002.75
2022-05-18 18:23:00,,0826.5,5.00,0.00,29.5,27.9,00.0,38.4,31.3,17.3,0000.0,0009.96,0003.98,0002.72
2022-05-18 18:24:00,,0826.5,4.99,0.00,29.5,28.1,00.0,38.4,31.4,17.1,0000.0,0009.83,0003.98,0002.69
2022-05-18 18:25:00,,0826.5,4.98,0.00,29.5,28.2,00.0,38.4,31.4,16.8,0000.0,0010.35,0003.98,0002.67
2022-05-18 18:26:00,,0826.5,5.00,0.00,29.6,28.4,00.0,38.4,31.5,17.1,0000.0,0010.53,0003.94,0002.67
2022-05-18 18:27:00,,0826.5,5.00,0.00,29.6,28.5,00.0,38.4,31.5,17.7,0000.0,0009.77,0003.88,0002.65
2022-05-18 18:28:00,,0826.5,5.01,0.00,29.6,28.6,00.0,38.4,31.5,17.0,0000.0,0009.45,0003.83,0002.61
2022-05-18 18:29:00,,0826.5,5.00,0.00,29.7,28.7,00.0,38.4,31.6,17.5,0000.0,0009.80,0003.84,0002.60
2022-05-18 18:30:00,,0826.5,5.00,0.00,29.7,28.8,00.0,38.5,31.6,17.4,0000.0,0010.38,0003.84,0002.60
2022-05-18 18:31:00,,0826.5,5.00,0.00,29.7,28.9,00.0,38.5,31.7,16.7,0000.0,0010.50,0003.81,0002.59
2022-05-18 18:32:00,,0826.5,5.01,0.00,29.7,28.7,00.0,38.5,31.6,17.6,0000.0,0010.51,0003.81,0002.57
2022-05-18 18:33:00,,0826.4,5.00,0.00,29.7,27.9,00.0,38.4,31.3,17.2,0000.0,0010.60,0003.83,0002.57
2022-05-18 18:34:00,,0826.4,5.00,0.00,29.6,27.3,00.0,38.4,31.2,16.6,0000.0,0011.13,0003.86,0002.58
2022-05-18 18:35:00,,0826.4,5.00,0.00,29.5,27.2,00.0,38.4,31.1,16.9,0000.0,0010.91,0003.84,0002.59
2022-05-18 18:36:00,,0826.3,5.00,0.00,29.5,27.3,00.0,38.3,31.1,16.7,0000.0,0010.04,0003.81,0002.58
2022-05-18 18:37:00,,0826.4,5.00,0.00,29.5,27.5,00.0,38.3,31.2,16.7,0000.0,0009.70,0003.79,0002.57
2022-05-18 18:38:00,,0826.3,5.01,0.00,29.5,27.6,00.0,38.3,31.2,17.0,0000.0,0009.54,0003.79,0002.56
2022-05-18 18:39:00,,0826.3,4.99,0.00,29.5,27.8,00.0,38.3,31.3,17.2,0000.0,0009.44,0003.79,0002.57
2022-05-18 18:40:00,,0826.2,4.99,0.00,29.5,28.0,00.0,38.3,31.3,17.6,0000.0,0009.43,0003.78,0002.57
2022-05-18 18:41:00,,0826.2,5.00,0.00,29.5,28.2,00.0,38.3,31.4,16.8,0000.0,0009.56,0003.75,0002.56
2022-05-18 18:42:00,,0826.2,5.01,0.00,29.5,28.3,00.0,38.4,31.4,17.0,0000.0,0010.14,0003.73,0002.54
2022-05-18 18:43:00,,0826.2,5.00,0.00,29.5,28.5,00.0,38.4,31.4,16.8,0000.0,0011.30,0003.72,0002.54
2022-05-18 18:44:00,,0826.2,4.99,0.00,29.6,28.6,00.0,38.4,31.5,16.6,0000.0,0011.50,0003.73,0002.54
2022-05-18 18:45:00,,0826.2,5.01,0.00,29.6,28.7,00.0,38.4,31.5,16.8,0000.0,0011.38,0003.75,0002.53
2022-05-18 18:46:00,,0826.2,5.01,0.00,29.6,28.8,00.0,38.4,31.6,16.9,0000.0,0011.35,0003.76,0002.51
2022-05-18 18:47:00,,0826.2,4.99,0.00,29.7,28.8,00.0,38.4,31.6,17.4,0000.0,0011.45,0003.77,0002.50
2022-05-18 18:48:00,,0826.2,5.01,0.00,29.7,28.9,00.0,38.5,31.7,17.6,0000.0,0012.21,0003.85,0002.51
2022-05-18 18:49:00,,0826.2,5.00,0.00,29.7,28.4,00.0,38.4,31.5,16.7,0000.0,0012.64,0003.86,0002.53
2022-05-18 18:50:00,,0826.1,5.00,0.00,29.6,27.5,00.0,38.4,31.2,16.7,0000.0,0013.06,0003.86,0002.53
2022-05-18 18:51:00,,0826.2,4.99,0.00,29.5,27.2,00.0,38.3,31.1,16.7,0000.0,0012.89,0003.85,0002.53
2022-05-18 18:52:00,,0826.2,5.00,0.00,29.5,27.2,00.0,38.3,31.1,16.7,0000.0,0012.25,0003.84,0002.53
2022-05-18 18:53:00,,0826.1,4.99,0.00,29.4,27.3,00.0,38.3,31.1,17.2,0000.0,0011.90,0003.87,0002.54
2022-05-18 18:54:00,,0826.1,5.00,0.00,29.4,27.5,00.0,38.3,31.2,16.9,0000.0,0011.01,0003.86,0002.54
2022-05-18 18:55:00,,0826.1,4.99,0.00,29.4,27.7,00.0,38.3,31.2,16.6,0000.0,0011.03,0003.85,0002.55
2022-05-18 18:56:00,,0826.1,5.00,0.00,29.4,27.9,00.0,38.3,31.3,17.1,0000.0,0011.00,0003.87,0002.58
2022-05-18 18:57:00,,0826.1,5.01,0.00,29.5,28.1,00.0,38.3,31.3,17.1,0000.0,0011.38,0003.81,0002.58
2022-05-18 18:58:00,,0826.1,4.99,0.00,29.5,28.2,00.0,38.3,31.4,17.3,0000.0,0011.85,0003.84,0002.60
2022-05-18 18:59:00,,0826.1,5.02,0.00,29.5,28.4,00.0,38.3,31.4,17.0,0000.0,0011.14,0003.78,0002.62
